Lid_Strength_Index
1 1 1 1 1 1 0 1 0 -0 0 0 0 0 0 -0 -0 -0 -1 -0 -0 -0 -1 -0 -0 -1 0 -0 -0 -0 0 1 2 1 0 -1 -1 -1 -1 -2 -2 -2 -2
1 1 1 1 1 2 1 0 1 1 -0 -0 -0 -0 -0 -0 -0 0 0 -0 0 0 0 -0 0 -0 -0 -1 -0 -0 0 0 1 3 1 1 0 -1 -1 -1 -1 -1 -1
1 1 1 1 2 2 3 2 2 1 0 0 0 0 0 -0 0 -0 -0 -0 -0 -0 -0 -0 0 -0 0 0 -0 0 0 0 0 1 2 0 0 -0 -0 -1 -1 -1 -1
1 1 1 2 2 3 3 2 1 1 1 0 0 0 0 0 -0 -0 -0 -0 -0 -0 -0 -0 -0 -0 -0 -0 -0 -0 0 1 1 2 2 2 1 -0 -0 1 1 0 0
1 1 1 1 2 1 1 3 1 1 1 1 1 0 0 0 0 -0 -0 -0 -0 -0 -0 -0 -1 0 2 2 2 1 1 2 3 3 3 2 2 2 2 1 2 2 1
1 1 1 2 1 1 1 2 1 1 1 1 1 1 1 0 4 4 1 -0 -0 0 0 -0 -1 0 2 2 3 3 3 2 3 3 3 3 2 1 1 2 2 2 3
1 1 1 1 2 2 1 1 2 1 1 1 1 1 1 1 7 6 4 -0 -0 -0 -0 -0 0 0 1 -0 2 3 4 4 5 2 3 3 2 1 2 2 2 2 2
2 2 2 2 2 2 2 2 2 1 1 1 1 1 1 1 8 8 6 -0 -0 -0 -0 -0 -0 0 0 1 1 2 2 1 1 2 1 0 1 1 2 2 2 2 2
2 2 2 2 2 2 2 2 2 1 1 1 1 1 1 4 10 9 5 0 0 -0 -0 0 1 0 5 7 3 3 2 2 2 4 5 5 6 7 6 3 4 3 3
2 3 2 2 2 2 2 2 2 1 1 1 1 0 2 3 11 9 6 1 0 1 0 1 5 3 7 8 4 3 4 3 2 2 2 2 4 3 6 3 3 3 3
1 1 4 3 1 1 1 1 2 1 1 1 1 1 1 3 7 10 8 3 3 3 3 3 3 8 8 10 10 4 4 4 5 4 4 3 2 0 0 1 1 2 4
1 1 2 6 4 1 1 1 1 2 2 2 2 2 1 2 8 10 9 11 9 5 4 4 4 11 11 11 10 9 9 8 5 5 5 4 3 1 0 -0 -0 0 2
1 1 2 5 6 6 7 6 3 2 2 3 2 2 2 3 4 10 10 11 10 6 4 6 10 10 10 8 9 10 10 5 5 6 5 3 2 1 0 1 1 2 3
2 2 1 2 6 6 7 8 8 9 7 3 3 2 2 2 3 5 5 6 10 8 6 5 6 8 8 6 7 5 3 3 3 3 3 2 1 2 3 4 6 6 7
2 1 1 2 4 7 8 9 8 10 12 14 8 3 4 4 8 10 9 6 6 9 10 7 5 4 3 2 2 2 2 1 2 3 3 3 4 5 6 6 7 8 9
2 2 2 3 4 4 6 10 12 12 12 13 13 11 9 12 13 13 13 13 13 13 8 7 6 5 4 3 3 3 3 4 4 4 4 5 6 8 8 8 9 10 10
2 2 2 2 2 5 7 7 11 11 11 12 12 12 13 13 13 13 13 13 13 12 7 5 5 4 3 3 4 5 5 5 5 5 6 7 8 9 10 10 9 9 10
2 4 1 2 2 3 4 5 6 7 8 9 12 11 12 13 13 13 13 12 6 8 5 5 4 4 4 5 6 6 6 6 6 7 9 9 10 10 10 10 10 10 10
2 1 3 2 4 5 5 4 5 6 6 6 6 10 11 13 13 13 13 6 6 5 5 5 5 6 7 6 6 7 7 8 8 9 10 10 10 9 10 9 9 11 11
2 3 3 2 3 3 4 4 5 5 4 5 6 6 6 8 7 6 6 6 6 7 7 7 7 7 7 7 8 8 8 9 10 10 10 9 9 9 10 10 10 10 9
1 1 8 1 2 3 4 4 4 5 5 5 5 8 14 7 6 6 5 6 6 7 7 7 8 8 8 8 8 9 9 10 10 10 9 10 9 9 9 9 9 10 9
1 1 1 2 2 3 3 4 4 5 5 5 4 6 12 4 5 5 6 6 6 7 7 8 8 9 8 8 9 9 10 10 11 10 9 8 9 9 9 9 9 9 9
1 2 2 2 3 7 4 4 5 4 4 4 4 4 4 4 5 6 7 7 8 7 7 7 7 8 8 9 9 9 10 11 10 8 8 8 9 8 7 8 8 9 9
1 2 3 3 3 3 3 4 4 7 4 4 4 4 4 5 5 7 7 6 6 6 7 7 7 8 9 9 10 10 10 9 8 8 7 7 8 8 7 7 7 7 8
2 2 3 3 3 3 3 3 3 4 4 4 4 4 4 5 5 5 6 6 5 5 6 7 7 8 9 10 11 11 11 13 12 12 10 8 7 6 7 7 7 8 8
2 2 2 3 3 3 3 4 4 4 5 5 5 4 4 4 4 4 3 4 4 4 5 5 6 8 9 12 12 13 13 13 13 13 11 9 6 5 5 7 8 8 9